Weather History for KWAL - January, 2014

Change the Weather History Date:

Sunday, January 26, 2014

  Actual Average Record
Temperature  
Mean Temperature 30 °F 36 °F  
Max Temperature 40 °F 45 °F 62 °F (1989)
Min Temperature 20 °F 28 °F 18 °F (1982)
Degree Days  
Heating Degree Days 35    
Month to date heating degree days 774  
Since 1 July heating degree days 2057  
Cooling Degree Days 0    
Month to date cooling degree days 0  
Year to date cooling degree days 0  
Moisture  
Dew Point 19 °F    
Average Humidity 58    
Maximum Humidity 76    
Minimum Humidity 39    
Precipitation  
Precipitation T in 0.10 in 0.98 in (2011)
Month to date precipitation 2.36 2.55  
Year to date precipitation 2.36 2.55  
Sea Level Pressure  
Sea Level Pressure 29.87 in    
Wind  
Wind Speed 9 mph (SW)    
Max Wind Speed 24 mph    
Max Gust Speed 31 mph    
Visibility 10 miles    
Events Snow    
T = Trace of Precipitation, MM = Missing Value Source: NWS Daily Summary

Daily Weather History Graph

Daily Weather History Graph

Search for Another Location

Airport or City:

Trip Planner

Search our weather history database for the weather conditions in past years. The results will help you decide how hot, cold, wet, or windy it might be!

Date:

Astronomy

Jan. 26, 2014 Rise Set
Actual Time 7:10 AM EST 5:18 PM EST
Civil Twilight 6:42 AM EST 5:46 PM EST
Nautical Twilight 6:10 AM EST 6:18 PM EST
Astronomical Twilight 5:39 AM EST 6:49 PM EST
Moon 2:45 AM EST (1/26) 1:06 PM EST (1/26)
Length of Visible Light 11h 03m
Length of Day
10h 07m
Waning Crescent, 24% of the Moon is Illuminated
Jan 26
Waning Crescent
Jan 30
New
Feb 6
First Quarter
Feb 14
Full
Feb 22
Last Quarter

Hourly Weather History & Observations

Time (EST) Temp. Windchill Dew Point Humidity Pressure Visibility Wind Dir Wind Speed Gust Speed Precip Events Conditions
12:54 AM 35.1 °F 26.9 °F 19.0 °F 52% 29.67 in 10.0 mi West 11.5 mph 21.9 mph N/A   Scattered Clouds
1:54 AM 34.0 °F 23.8 °F 19.0 °F 54% 29.71 in 10.0 mi WNW 16.1 mph 23.0 mph N/A   Partly Cloudy
2:54 AM 30.9 °F 19.4 °F 23.0 °F 72% 29.77 in 10.0 mi NNW 17.3 mph 29.9 mph 0.00 in Snow Light Snow
3:54 AM 30.9 °F 21.2 °F 12.9 °F 47% 29.80 in 10.0 mi NW 12.7 mph 19.6 mph 0.00 in   Clear
4:54 AM 28.0 °F 20.8 °F 10.9 °F 49% 29.85 in 10.0 mi NNW 6.9 mph - N/A   Clear
5:54 AM 26.1 °F 20.5 °F 12.9 °F 58% 29.93 in 10.0 mi NW 4.6 mph - N/A   Clear
6:54 AM 24.1 °F - 12.9 °F 62% 29.94 in 10.0 mi Calm Calm - N/A   Clear
7:54 AM 24.1 °F - 14.0 °F 65% 29.95 in 10.0 mi Calm Calm - N/A   Clear
8:54 AM 28.0 °F 24.2 °F 12.0 °F 51% 29.96 in 10.0 mi North 3.5 mph - N/A   Clear
9:54 AM 30.0 °F 26.5 °F 8.1 °F 40% 29.97 in 10.0 mi Variable 3.5 mph - N/A   Clear
10:54 AM 32.0 °F 25.6 °F 10.9 °F 42% 29.96 in 10.0 mi South 6.9 mph - N/A   Clear
11:54 AM 32.0 °F 24.8 °F 14.0 °F 48% 29.94 in 10.0 mi South 8.1 mph - N/A   Clear
12:54 PM 33.1 °F 26.1 °F 16.0 °F 50% 29.92 in 10.0 mi SSW 8.1 mph - N/A   Clear
1:54 PM 36.0 °F 27.5 °F 15.1 °F 43% 29.88 in 10.0 mi SSW 12.7 mph - N/A   Clear
2:54 PM 36.0 °F 27.1 °F 17.1 °F 46% 29.88 in 10.0 mi SSW 13.8 mph - N/A   Mostly Cloudy
3:54 PM 37.0 °F 30.4 °F 18.0 °F 46% 29.88 in 10.0 mi SSW 9.2 mph - N/A   Clear
4:54 PM 36.0 °F 29.0 °F 21.0 °F 55% 29.89 in 10.0 mi SSW 9.2 mph - N/A   Clear
5:54 PM 36.0 °F 29.6 °F 24.1 °F 62% 29.88 in 10.0 mi SSW 8.1 mph - N/A   Clear
6:54 PM 39.0 °F 31.8 °F 28.0 °F 65% 29.89 in 10.0 mi SSW 11.5 mph - N/A   Clear
7:54 PM 39.0 °F 32.3 °F 30.9 °F 73% 29.88 in 10.0 mi SSW 10.4 mph - N/A   Partly Cloudy
8:54 PM 39.0 °F 31.4 °F 32.0 °F 76% 29.86 in 10.0 mi SSW 12.7 mph - N/A   Clear
9:54 PM 39.0 °F 31.0 °F 30.0 °F 70% 29.86 in 10.0 mi SW 13.8 mph - N/A   Clear
10:54 PM 39.0 °F 32.8 °F 28.0 °F 65% 29.86 in 10.0 mi SW 9.2 mph - N/A   Clear
11:54 PM 36.0 °F 28.5 °F 28.0 °F 73% 29.84 in 10.0 mi SSW 10.4 mph - N/A   Clear